EUTELSAT 25B (39233 NORAD) Tracking and Keplerian Element Data

This shows tracking and keplerian element data for the satellite.

Feedback or suggestion? Click here.




ElementValue
Catalog39233
NameEUTELSAT 25B
Epoch Orbit1936
Epoch Day343.71135505
Epoch Year2018
RAAN351.1981
Inclination0.0474
Eccentricity0.0001458
Argument of Perigee265.0562
Mean Anonmoly103.7411
Mean Motion1.00274443
Decay Rate1.47E-06
L11 39233U 13044A 18343.71135505 .00000147 00000-0 00000+0 0 9999
L22 39233 0.0474 351.1981 0001458 265.0562 103.7411 1.00274443 19360

Live tracking and technical data element details for EUTELSAT 25B (NORAD 39233). EUTELSAT 25B can be tracked NOW for your location showing map with azimuth and elevation plus other details from your city location.

Track the satellite on the map from your city or location and see movement details for azimuth, elevation, latitude, longitude, range, height, and movement on the map or in text.







IsCatalogInMostPopularTable: catalog: 39233, numindb: 628
Update: records affected: 1



GetName: 39233 EUTELSAT 25B

Hit Count: updated at: Tue, 11 Dec 2018 03:16:54 GMT